| time (UTC) | temp C | wind direction | speed KPH | gust KPH | rain 1hr cm | rain 24hr cm | rain mn cm | humidity % | barometer mb |
| 20260509030802 | 17 | 0 | 3.2 | 3.2 | 0.00 | 0.00 | 0.00 | 34 | 1005.1 |
| 20260509025702 | 17 | 0 | 1.6 | 1.6 | 0.00 | 0.00 | 0.00 | 34 | 1005.1 |
| 20260509024602 | 18 | 270 | 0.0 | 3.2 | 0.00 | 0.00 | 0.00 | 32 | 1005.1 |
| 20260509023502 | 18 | 158 | 3.2 | 3.2 | 0.00 | 0.00 | 0.00 | 32 | 1005.1 |
| 20260509022306 | 18 | 90 | 0.0 | 1.6 | 0.00 | 0.00 | 0.00 | 30 | 1004.4 |
| 20260509021102 | 19 | 45 | 0.0 | 1.6 | 0.00 | 0.00 | 0.00 | 30 | 1004.4 |
| 20260509013903 | 21 | 0 | 0.0 | 1.6 | 0.00 | 0.00 | 0.00 | 27 | 1003.7 |
| 20260509011703 | 22 | 248 | 1.6 | 3.2 | 0.00 | 0.00 | 0.00 | 25 | 1003.4 |
| 20260509010603 | 22 | 180 | 1.6 | 6.4 | 0.00 | 0.00 | 0.00 | 25 | 1003.7 |
| 20260509005502 | 23 | 293 | 1.6 | 6.4 | 0.00 | 0.00 | 0.00 | 25 | 1003.7 |
| 20260509004402 | 23 | 158 | 3.2 | 9.7 | 0.00 | 0.00 | 0.00 | 27 | 1003.4 |
| 20260509003302 | 23 | 225 | 9.7 | 9.7 | 0.00 | 0.00 | 0.00 | 25 | 1003.4 |
| 20260509001003 | 24 | 0 | 12.9 | 12.9 | 0.00 | 0.00 | 0.00 | 30 | 1003.7 |
| 20260508235902 | 24 | 45 | 4.8 | 9.7 | 0.00 | 0.00 | 0.00 | 31 | 1003.4 |
| 20260508234802 | 23 | 23 | 6.4 | 9.7 | 0.00 | 0.00 | 0.00 | 34 | 1003.4 |
| 20260508233702 | 23 | 113 | 3.2 | 3.2 | 0.00 | 0.00 | 0.00 | 34 | 1003.7 |
| 20260508231503 | 23 | 90 | 3.2 | 4.8 | 0.00 | 0.00 | 0.00 | 32 | 1003.7 |
| 20260508230502 | 23 | 45 | 1.6 | 4.8 | 0.00 | 0.00 | 0.00 | 32 | 1003.7 |
| 20260508225403 | 23 | 45 | 3.2 | 4.8 | 0.00 | 0.00 | 0.00 | 30 | 1003.7 |
| 20260508224302 | 23 | 23 | 4.8 | 9.7 | 0.00 | 0.00 | 0.00 | 31 | 1003.7 |
| 20260508222102 | 25 | 45 | 4.8 | 6.4 | 0.00 | 0.00 | 0.00 | 27 | 1004.1 |
| 20260508215902 | 25 | 45 | 8.0 | 8.0 | 0.00 | 0.00 | 0.00 | 30 | 1003.7 |
| 20260508214803 | 26 | 45 | 6.4 | 11.3 | 0.00 | 0.00 | 0.00 | 27 | 1004.4 |
| 20260508212602 | 25 | 23 | 6.4 | 12.9 | 0.00 | 0.00 | 0.00 | 29 | 1004.1 |
| 20260508210302 | 26 | 68 | 6.4 | 8.0 | 0.00 | 0.00 | 0.00 | 29 | 1004.4 |
| 20260508205202 | 25 | 23 | 6.4 | 11.3 | 0.00 | 0.00 | 0.00 | 29 | 1004.7 |
| 20260508204102 | 24 | 23 | 3.2 | 11.3 | 0.00 | 0.00 | 0.00 | 30 | 1004.7 |
| 20260508202902 | 24 | 23 | 9.7 | 12.9 | 0.00 | 0.00 | 0.00 | 30 | 1004.7 |
| 20260508201802 | 25 | 158 | 3.2 | 8.0 | 0.00 | 0.00 | 0.00 | 30 | 1005.4 |
| 20260508200702 | 24 | 45 | 6.4 | 6.4 | 0.00 | 0.00 | 0.00 | 30 | 1005.4 |
| 20260508195602 | 23 | 68 | 4.8 | 9.7 | 0.00 | 0.00 | 0.00 | 30 | 1005.8 |
| 20260508194402 | 25 | 45 | 6.4 | 6.4 | 0.00 | 0.00 | 0.00 | 29 | 1005.4 |
| 20260508193302 | 26 | 45 | 4.8 | 11.3 | 0.00 | 0.00 | 0.00 | 27 | 1005.8 |
| 20260508192202 | 25 | 270 | 4.8 | 4.8 | 0.00 | 0.00 | 0.00 | 30 | 1005.8 |
| 20260508191102 | 24 | 158 | 3.2 | 3.2 | 0.00 | 0.00 | 0.00 | 30 | 1005.8 |
| 20260508183702 | 24 | 90 | 4.8 | 6.4 | 0.00 | 0.00 | 0.00 | 31 | 1006.1 |
| 20260508181502 | 23 | 225 | 4.8 | 4.8 | 0.00 | 0.00 | 0.00 | 35 | 1006.4 |
| 20260508180401 | 23 | 0 | 3.2 | 6.4 | 0.00 | 0.00 | 0.00 | 32 | 1006.4 |
| 20260508175202 | 23 | 68 | 4.8 | 4.8 | 0.00 | 0.00 | 0.00 | 31 | 1006.8 |
| 20260508174102 | 22 | 45 | 6.4 | 8.0 | 0.00 | 0.00 | 0.00 | 31 | 1006.4 |
| 20260508173004 | 23 | 180 | 1.6 | 4.8 | 0.00 | 0.00 | 0.00 | 37 | 1006.8 |
| 20260508171902 | 22 | 68 | 6.4 | 9.7 | 0.00 | 0.00 | 0.00 | 35 | 1007.1 |
| 20260508170802 | 21 | 45 | 3.2 | 8.0 | 0.00 | 0.00 | 0.00 | 37 | 1006.8 |
| 20260508165702 | 21 | 135 | 1.6 | 3.2 | 0.00 | 0.00 | 0.00 | 37 | 1007.1 |
| 20260508164602 | 21 | 45 | 4.8 | 4.8 | 0.00 | 0.00 | 0.00 | 35 | 1007.1 |
| 20260508163502 | 21 | 158 | 3.2 | 4.8 | 0.00 | 0.00 | 0.00 | 39 | 1007.1 |
| 20260508162403 | 21 | 158 | 3.2 | 4.8 | 0.00 | 0.00 | 0.00 | 35 | 1007.1 |
| 20260508160202 | 21 | 23 | 3.2 | 6.4 | 0.00 | 0.00 | 0.00 | 34 | 1007.1 |
| 20260508155102 | 21 | 68 | 3.2 | 6.4 | 0.00 | 0.00 | 0.00 | 40 | 1007.1 |
| 20260508154003 | 20 | 158 | 3.2 | 3.2 | 0.00 | 0.00 | 0.00 | 35 | 1007.5 |
| 20260508153003 | 20 | 45 | 1.6 | 3.2 | 0.00 | 0.00 | 0.00 | 37 | 1007.5 |
| 20260508151902 | 19 | 45 | 3.2 | 4.8 | 0.00 | 0.00 | 0.00 | 40 | 1007.5 |
| 20260508150802 | 18 | 45 | 3.2 | 4.8 | 0.00 | 0.00 | 0.00 | 41 | 1007.5 |
| 20260508145702 | 18 | 45 | 4.8 | 4.8 | 0.00 | 0.00 | 0.00 | 40 | 1007.5 |
| 20260508144602 | 17 | 45 | 6.4 | 6.4 | 0.00 | 0.00 | 0.00 | 44 | 1007.8 |
| 20260508143402 | 17 | 68 | 3.2 | 4.8 | 0.00 | 0.00 | 0.00 | 46 | 1007.8 |
| 20260508142306 | 16 | 45 | 4.8 | 6.4 | 0.00 | 0.00 | 0.00 | 45 | 1007.8 |
| 20260508134902 | 13 | 158 | 1.6 | 1.6 | 0.00 | 0.00 | 0.00 | 61 | 1007.8 |
| 20260508133802 | 13 | 158 | 0.0 | 0.0 | 0.00 | 0.00 | 0.00 | 63 | 1008.1 |
| 20260508125403 | 12 | 45 | 0.0 | 0.0 | 0.00 | 0.00 | 0.00 | 60 | 1007.5 |
| 20260508124202 | 11 | 158 | 0.0 | 0.0 | 0.00 | 0.00 | 0.00 | 60 | 1007.8 |
| 20260508122002 | 11 | 158 | 0.0 | 0.0 | 0.00 | 0.00 | 0.00 | 59 | 1007.1 |
| 20260508120902 | 11 | 158 | 0.0 | 0.0 | 0.00 | 0.00 | 0.00 | 60 | 1007.5 |
| 20260508115702 | 11 | 45 | 0.0 | 1.6 | 0.00 | 0.00 | 0.00 | 59 | 1007.8 |
| 20260508114602 | 11 | 45 | 3.2 | 4.8 | 0.00 | 0.00 | 0.00 | 56 | 1007.8 |
| 20260508113502 | 10 | 45 | 3.2 | 4.8 | 0.00 | 0.00 | 0.00 | 55 | 1007.5 |
| 20260508112202 | 10 | 158 | 0.0 | 0.0 | 0.00 | 0.00 | 0.00 | 58 | 1007.5 |
| 20260508111102 | 10 | 158 | 0.0 | 0.0 | 0.00 | 0.00 | 0.00 | 55 | 1007.8 |
| 20260508104902 | 10 | 158 | 0.0 | 0.0 | 0.00 | 0.00 | 0.00 | 50 | 1007.8 |
| 20260508103702 | 10 | 158 | 0.0 | 0.0 | 0.00 | 0.00 | 0.00 | 50 | 1007.5 |
| 20260508102603 | 11 | 158 | 1.6 | 3.2 | 0.00 | 0.00 | 0.00 | 46 | 1007.8 |
| 20260508101502 | 11 | 158 | 1.6 | 3.2 | 0.00 | 0.00 | 0.00 | 45 | 1007.8 |
| 20260508100302 | 10 | 180 | 0.0 | 1.6 | 0.00 | 0.00 | 0.00 | 50 | 1007.8 |
| 20260508095202 | 10 | 158 | 0.0 | 1.6 | 0.00 | 0.00 | 0.00 | 55 | 1007.8 |
| 20260508094003 | 10 | 158 | 3.2 | 3.2 | 0.00 | 0.00 | 0.00 | 55 | 1008.1 |
| 20260508092903 | 11 | 158 | 0.0 | 1.6 | 0.00 | 0.00 | 0.00 | 50 | 1008.1 |
| 20260508091902 | 11 | 45 | 1.6 | 1.6 | 0.00 | 0.00 | 0.00 | 50 | 1007.8 |
| 20260508090803 | 11 | 113 | 0.0 | 4.8 | 0.00 | 0.00 | 0.00 | 51 | 1008.5 |
| 20260508085702 | 11 | 158 | 0.0 | 4.8 | 0.00 | 0.00 | 0.00 | 53 | 1008.5 |
| 20260508084602 | 11 | 158 | 0.0 | 4.8 | 0.00 | 0.00 | 0.00 | 51 | 1008.5 |
| 20260508083503 | 11 | 158 | 0.0 | 0.0 | 0.00 | 0.00 | 0.00 | 50 | 1008.1 |
| 20260508082306 | 12 | 158 | 3.2 | 3.2 | 0.00 | 0.00 | 0.00 | 49 | 1007.8 |
| 20260508081202 | 12 | 158 | 0.0 | 0.0 | 0.00 | 0.00 | 0.00 | 49 | 1007.8 |
| 20260508075003 | 12 | 68 | 3.2 | 3.2 | 0.00 | 0.00 | 0.00 | 49 | 1008.5 |
| 20260508073902 | 12 | 45 | 3.2 | 3.2 | 0.00 | 0.00 | 0.00 | 49 | 1008.5 |
| 20260508072802 | 12 | 180 | 0.0 | 3.2 | 0.00 | 0.00 | 0.00 | 48 | 1007.8 |
| 20260508071702 | 12 | 180 | 1.6 | 3.2 | 0.00 | 0.00 | 0.00 | 49 | 1008.5 |
| 20260508070701 | 12 | 180 | 1.6 | 3.2 | 0.00 | 0.00 | 0.00 | 48 | 1008.1 |
| 20260508064003 | 12 | 338 | 1.6 | 3.2 | 0.00 | 0.00 | 0.00 | 45 | 1008.5 |
| 20260508062902 | 12 | 180 | 0.0 | 0.0 | 0.00 | 0.00 | 0.00 | 45 | 1008.5 |
| 20260508061802 | 12 | 203 | 0.0 | 0.0 | 0.00 | 0.00 | 0.00 | 46 | 1008.5 |
| 20260508060702 | 12 | 203 | 1.6 | 3.2 | 0.00 | 0.00 | 0.00 | 46 | 1008.1 |
| 20260508055603 | 12 | 158 | 1.6 | 1.6 | 0.00 | 0.00 | 0.00 | 49 | 1008.5 |
| 20260508054503 | 12 | 158 | 1.6 | 3.2 | 0.00 | 0.00 | 0.00 | 48 | 1008.1 |
| 20260508053302 | 11 | 158 | 3.2 | 3.2 | 0.00 | 0.00 | 0.00 | 54 | 1008.1 |
| 20260508052202 | 12 | 158 | 3.2 | 3.2 | 0.00 | 0.00 | 0.00 | 50 | 1008.1 |
| 20260508051102 | 12 | 158 | 3.2 | 3.2 | 0.00 | 0.00 | 0.00 | 46 | 1008.1 |
| 20260508050004 | 12 | 158 | 0.0 | 1.6 | 0.00 | 0.00 | 0.00 | 45 | 1008.5 |
| 20260508045102 | 11 | 158 | 0.0 | 0.0 | 0.00 | 0.00 | 0.00 | 45 | 1008.5 |
| 20260508044002 | 11 | 158 | 0.0 | 0.0 | 0.00 | 0.00 | 0.00 | 46 | 1008.5 |
| 20260508042502 | 12 | 158 | 0.0 | 0.0 | 0.00 | 0.00 | 0.00 | 45 | 1008.5 |
| 20260508040004 | 12 | 158 | 0.0 | 0.0 | 0.00 | 0.00 | 0.00 | 46 | 1008.8 |
| 20260508033802 | 12 | 158 | 0.0 | 0.0 | 0.00 | 0.00 | 0.00 | 44 | 1008.5 |
| 20260508032201 | 12 | 158 | 0.0 | 0.0 | 0.00 | 0.00 | 0.00 | 41 | 1008.5 |